• In Hungary
  • List of Countries
  • For 7 days
  • Water Temperature
  • Satellite Maps
  • Weather Map
  • News
  • Weather Widgets
  • user-avatar
    Login

    Hourly Weather Karlovo

    Today, 25 June, Monday

    Time Temperature Precipitation Wind Pressure Humidity
    00:00 +9°C° 0 mm 1 mps 653 mmHg 67%
    01:00 +9°C° 0 mm 1 mps 653 mmHg 68%
    02:00 +8°C° 0 mm 1 mps 653 mmHg 69%
    03:00 +8°C° 0 mm 1 mps 652 mmHg 72%
    04:00 +8°C° 0 mm 1 mps 652 mmHg 75%
    05:00 +7°C° 0 mm 1 mps 652 mmHg 78%
    06:00 +9°C° 0 mm 1 mps 653 mmHg 73%
    07:00 +11°C° 0 mm 1 mps 653 mmHg 69%
    08:00 +13°C° 0 mm 1 mps 654 mmHg 64%
    09:00 +14°C° 0 mm 1 mps 654 mmHg 60%
    10:00 +15°C° 0 mm 2 mps 655 mmHg 56%
    11:00 +16°C° 0 mm 2 mps 655 mmHg 52%
    12:00 +17°C° 0.1 mm 2 mps 655 mmHg 51%
    13:00 +17°C° 0.1 mm 2 mps 655 mmHg 50%
    14:00 +18°C° 0.1 mm 3 mps 655 mmHg 48%
    15:00 +18°C° 0.2 mm 3 mps 655 mmHg 49%
    16:00 +18°C° 0.2 mm 3 mps 654 mmHg 50%
    17:00 +18°C° 0.2 mm 3 mps 654 mmHg 51%
    18:00 +16°C° 0.1 mm 3 mps 654 mmHg 57%
    19:00 +14°C° 0.1 mm 2 mps 653 mmHg 63%
    20:00 +13°C° 0.1 mm 2 mps 653 mmHg 69%
    21:00 +12°C° 0 mm 2 mps 653 mmHg 72%
    22:00 +10°C° 0 mm 2 mps 653 mmHg 74%
    23:00 +10°C° 0 mm 2 mps 653 mmHg 77%

    Tomorrow, 26 June, Tuesday

    Time Temperature Precipitation Wind Pressure Humidity
    00:00 +10°C° 0 mm 1 mps 653 mmHg 80%
    01:00 +10°C° 0 mm 1 mps 652 mmHg 83%
    02:00 +9°C° 0 mm 1 mps 652 mmHg 85%
    03:00 +9°C° 0 mm 1 mps 652 mmHg 86%
    04:00 +8°C° 0 mm 1 mps 651 mmHg 88%
    05:00 +8°C° 0 mm 1 mps 651 mmHg 89%
    06:00 +10°C° 0 mm 1 mps 651 mmHg 81%
    07:00 +12°C° 0 mm 1 mps 652 mmHg 73%
    08:00 +13°C° 0 mm 2 mps 653 mmHg 65%
    09:00 +14°C° 0 mm 2 mps 653 mmHg 60%
    10:00 +16°C° 0 mm 3 mps 653 mmHg 54%
    11:00 +17°C° 0 mm 3 mps 653 mmHg 48%
    12:00 +17°C° 0 mm 3 mps 653 mmHg 48%
    13:00 +18°C° 0 mm 3 mps 652 mmHg 48%
    14:00 +18°C° 0 mm 3 mps 652 mmHg 47%
    15:00 +18°C° 0.3 mm 3 mps 652 mmHg 53%
    16:00 +17°C° 0.3 mm 3 mps 651 mmHg 58%
    17:00 +17°C° 0.3 mm 3 mps 651 mmHg 63%
    18:00 +15°C° 1.3 mm 2 mps 650 mmHg 71%
    19:00 +14°C° 1.3 mm 2 mps 650 mmHg 80%
    20:00 +12°C° 1.3 mm 1 mps 649 mmHg 88%
    21:00 +12°C° 1.7 mm 1 mps 649 mmHg 89%
    22:00 +12°C° 1.7 mm 1 mps 649 mmHg 91%
    23:00 +12°C° 1.7 mm 2 mps 649 mmHg 93%

    Day after tomorrow, 27 June, Wednesday

    Time Temperature Precipitation Wind Pressure Humidity
    00:00 +10°C° 1.6 mm 2 mps 649 mmHg 93%
    01:00 +10°C° 1.6 mm 2 mps 649 mmHg 94%
    02:00 +11°C° 1.6 mm 1 mps 648 mmHg 94%
    03:00 +11°C° 1.8 mm 1 mps 648 mmHg 95%
    04:00 +10°C° 1.8 mm 2 mps 648 mmHg 95%
    05:00 +10°C° 1.8 mm 2 mps 648 mmHg 95%
    06:00 +10°C° 0.9 mm 2 mps 648 mmHg 93%
    07:00 +10°C° 0.9 mm 2 mps 648 mmHg 91%
    08:00 +12°C° 0.9 mm 2 mps 648 mmHg 90%
    09:00 +12°C° 0.3 mm 2 mps 648 mmHg 86%
    10:00 +13°C° 0.3 mm 2 mps 648 mmHg 82%
    11:00 +14°C° 0.3 mm 2 mps 648 mmHg 79%
    12:00 +14°C° 0.4 mm 2 mps 648 mmHg 78%
    13:00 +15°C° 0.4 mm 2 mps 648 mmHg 76%
    14:00 +15°C° 0.4 mm 2 mps 648 mmHg 75%
    15:00 +15°C° 0.9 mm 2 mps 648 mmHg 78%
    16:00 +14°C° 0.9 mm 2 mps 648 mmHg 80%
    17:00 +13°C° 0.9 mm 2 mps 648 mmHg 83%
    18:00 +12°C° 0.4 mm 2 mps 647 mmHg 86%
    19:00 +10°C° 0.4 mm 2 mps 647 mmHg 89%
    20:00 +9°C° 0.4 mm 2 mps 647 mmHg 92%
    21:00 +9°C° 0.1 mm 2 mps 647 mmHg 93%
    22:00 +10°C° 0.1 mm 1 mps 647 mmHg 93%
    23:00 +9°C° 0.1 mm 1 mps 647 mmHg 93%

    28 June, Thursday

    Time Temperature Precipitation Wind Pressure Humidity
    00:00 +9°C° 0.1 mm 1 mps 647 mmHg 93%
    01:00 +9°C° 0.1 mm 1 mps 647 mmHg 93%
    02:00 +9°C° 0.1 mm 1 mps 647 mmHg 92%
    03:00 +8°C° 0 mm 1 mps 647 mmHg 92%
    04:00 +8°C° 0 mm 1 mps 646 mmHg 91%
    05:00 +8°C° 0 mm 1 mps 646 mmHg 91%
    06:00 +10°C° 0 mm 1 mps 647 mmHg 85%
    07:00 +12°C° 0 mm 1 mps 648 mmHg 79%
    08:00 +13°C° 0 mm 1 mps 648 mmHg 73%
    09:00 +15°C° 0 mm 1 mps 649 mmHg 68%
    10:00 +16°C° 0 mm 1 mps 649 mmHg 63%
    11:00 +18°C° 0 mm 1 mps 650 mmHg 57%
    12:00 +19°C° 0.1 mm 1 mps 650 mmHg 57%
    13:00 +19°C° 0.1 mm 1 mps 650 mmHg 56%
    14:00 +20°C° 0.1 mm 1 mps 650 mmHg 55%
    15:00 +20°C° 0.1 mm 1 mps 650 mmHg 56%
    16:00 +20°C° 0.1 mm 1 mps 650 mmHg 57%
    17:00 +20°C° 0.1 mm 1 mps 650 mmHg 58%
    18:00 +18°C° 0.1 mm 1 mps 650 mmHg 65%
    19:00 +15°C° 0.1 mm 1 mps 649 mmHg 72%
    20:00 +13°C° 0.1 mm 1 mps 649 mmHg 79%
    21:00 +13°C° 0.2 mm 1 mps 649 mmHg 82%
    22:00 +12°C° 0.2 mm 1 mps 649 mmHg 84%
    23:00 +11°C° 0.2 mm 1 mps 649 mmHg 86%

    29 June, Friday

    Time Temperature Precipitation Wind Pressure Humidity
    00:00 +11°C° 0.1 mm 1 mps 648 mmHg 87%
    01:00 +11°C° 0.1 mm 1 mps 648 mmHg 87%
    02:00 +11°C° 0.1 mm 1 mps 648 mmHg 88%
    03:00 +11°C° 0 mm 1 mps 648 mmHg 88%
    04:00 +10°C° 0 mm 1 mps 648 mmHg 88%
    05:00 +10°C° 0 mm 1 mps 648 mmHg 88%
    06:00 +12°C° 0 mm 1 mps 649 mmHg 81%
    07:00 +14°C° 0 mm 1 mps 650 mmHg 75%
    08:00 +15°C° 0 mm 0 mps 650 mmHg 68%
    09:00 +19°C° 0 mm 1 mps 651 mmHg 62%
    10:00 +20°C° 0 mm 1 mps 651 mmHg 57%
    11:00 +22°C° 0 mm 1 mps 651 mmHg 51%
    12:00 +22°C° 0.1 mm 1 mps 651 mmHg 49%
    13:00 +23°C° 0.1 mm 1 mps 651 mmHg 47%
    14:00 +23°C° 0.1 mm 1 mps 651 mmHg 46%
    15:00 +23°C° 0.1 mm 1 mps 651 mmHg 47%
    16:00 +23°C° 0.1 mm 1 mps 651 mmHg 48%
    17:00 +23°C° 0.1 mm 1 mps 650 mmHg 49%
    18:00 +21°C° 0 mm 1 mps 650 mmHg 54%
    19:00 +19°C° 0 mm 1 mps 649 mmHg 59%
    20:00 +16°C° 0 mm 1 mps 649 mmHg 65%
    21:00 +15°C° 0.1 mm 1 mps 649 mmHg 68%
    22:00 +15°C° 0.1 mm 1 mps 649 mmHg 71%
    23:00 +14°C° 0.1 mm 2 mps 649 mmHg 74%

    30 June, Saturday

    Time Temperature Precipitation Wind Pressure Humidity
    00:00 +13°C° 0.2 mm 2 mps 648 mmHg 76%
    01:00 +13°C° 0.2 mm 1 mps 648 mmHg 78%
    02:00 +12°C° 0.2 mm 1 mps 648 mmHg 80%
    03:00 +12°C° 0.2 mm 2 mps 648 mmHg 82%
    04:00 +10°C° 0.2 mm 2 mps 648 mmHg 83%
    05:00 +10°C° 0.2 mm 2 mps 648 mmHg 85%
    06:00 +13°C° 0 mm 2 mps 649 mmHg 79%
    07:00 +15°C° 0 mm 2 mps 649 mmHg 73%
    08:00 +18°C° 0 mm 1 mps 650 mmHg 67%
    09:00 +18°C° 0.3 mm 2 mps 650 mmHg 63%
    10:00 +19°C° 0.3 mm 2 mps 651 mmHg 58%
    11:00 +20°C° 0.3 mm 2 mps 651 mmHg 54%
    12:00 +20°C° 0.5 mm 2 mps 651 mmHg 54%
    13:00 +21°C° 0.5 mm 2 mps 651 mmHg 54%
    14:00 +21°C° 0.5 mm 2 mps 650 mmHg 54%
    15:00 +20°C° 1.1 mm 2 mps 650 mmHg 57%
    16:00 +20°C° 1.1 mm 2 mps 650 mmHg 61%
    17:00 +19°C° 1.1 mm 2 mps 649 mmHg 65%
    18:00 +18°C° 0.7 mm 2 mps 649 mmHg 70%
    19:00 +16°C° 0.7 mm 2 mps 649 mmHg 75%
    20:00 +14°C° 0.7 mm 2 mps 649 mmHg 80%
    21:00 +14°C° 1 mm 2 mps 649 mmHg 82%
    22:00 +13°C° 1 mm 1 mps 649 mmHg 85%
    23:00 +12°C° 1 mm 1 mps 649 mmHg 87%
    Show more